• MPC Preparation (Info)

  • MPEC 2016-O48 : 2014 LO28

    The following Minor Planet Electronic Circular may be linked-to from your own Web pages, but must not otherwise be redistributed electronically.

    A form allowing access to any MPEC is at the bottom of this page.


    Read MPEC 2016-O47 Read MPEC 2016-O49


    M.P.E.C. 2016-O48                                Issued 2016 July 16, 21:24 UT
    
         The Minor Planet Electronic Circulars contain information on unusual
             minor planets and routine data on comets.  They are published
        on behalf of Division F of the International Astronomical Union by the
              Minor Planet Center, Smithsonian Astrophysical Observatory,
                              Cambridge, MA 02138, U.S.A.
    
                 Prepared using the Tamkin Foundation Computer Network
    
                                  MPC@CFA.HARVARD.EDU
                URL https://www.minorplanetcenter.net/    ISSN 1523-6714
    
                                       2014 LO28
    
    Observations:
         K14L28O  C2010 09 02.40515 20 59 18.045-02 48 43.65         21.6 gLEO048F51
         K14L28O  C2010 09 02.41707 20 59 18.017-02 48 43.70         21.7 gLEO048F51
         K14L28O  C2010 09 02.43005 20 59 17.945-02 48 44.13         21.3 iLEO048F51
         K14L28O  C2010 09 02.44134 20 59 17.904-02 48 44.45         21.2 iLEO048F51
         K14L28O  C2012 08 21.46670 21 09 02.843-00 56 26.49         21.6 gLEO048F51
         K14L28O  C2012 08 21.47794 21 09 02.768-00 56 26.48         21.6 gLEO048F51
         K14L28O  C2012 08 21.48888 21 09 02.734-00 56 26.97         21.4 rLEO048F51
         K14L28O  C2012 08 21.49935 21 09 02.674-00 56 27.24         21.2 rLEO048F51
         K14L28O  C2013 08 15.35585 21 14 01.522+00 00 16.02         21.2 iLEO048F51
         K14L28O  C2013 08 15.41487 21 14 01.240+00 00 14.80         21.0 rLEO048F51
         K14L28O  C2013 08 15.42541 21 14 01.183+00 00 14.72         21.2 rLEO048F51
         K14L28O* C2014 06 01.52233 21 23 08.821+00 54 37.98         21.5 wLEO048F51
         K14L28O  C2014 06 01.53424 21 23 08.793+00 54 38.35         21.3 wLEO048F51
         K14L28O  C2014 06 01.54616 21 23 08.782+00 54 38.64         21.4 wLEO048F51
         K14L28O  C2014 06 01.55814 21 23 08.764+00 54 38.85         21.4 wLEO048F51
         K14L28O  C2014 07 03.50358 21 21 45.879+01 01 22.27         21.3 wLEO048F51
         K14L28O  C2014 07 03.51597 21 21 45.831+01 01 22.30         21.3 wLEO048F51
         K14L28O  C2014 07 03.52838 21 21 45.783+01 01 22.26         21.3 wLEO048F51
         K14L28O  C2014 07 03.54092 21 21 45.740+01 01 22.35         21.2 wLEO048F51
         K14L28O  C2014 08 18.40587 21 18 17.570+00 54 12.13         21.1 iLEO048F51
         K14L28O  C2014 08 18.41829 21 18 17.515+00 54 11.88         21.1 iLEO048F51
         K14L28O  C2014 08 18.43072 21 18 17.458+00 54 11.56         21.2 iLEO048F51
         K14L28O  C2014 08 18.44309 21 18 17.388+00 54 11.35         21.1 iLEO048F51
         K14L28O  C2014 08 29.32890 21 17 26.144+00 50 12.97         21.7 wLEO048F51
         K14L28O  C2014 08 29.34215 21 17 26.111+00 50 12.01         21.5 wLEO048F51
         K14L28O  C2014 08 29.35543 21 17 26.062+00 50 11.69         21.4 wLEO048F51
         K14L28O  C2015 06 11.52361 21 27 19.897+01 52 02.91         21.1 iLEO048F51
         K14L28O  C2015 06 11.53648 21 27 19.853+01 52 03.26         21.4 iLEO048F51
         K14L28O  C2015 06 11.54943 21 27 19.824+01 52 03.29         21.2 iLEO048F51
         K14L28O  C2015 06 11.56230 21 27 19.809+01 52 03.80         21.3 iLEO048F51
         K14L28O  C2015 07 08.53215 21 25 57.654+01 56 19.05         21.1 iLEO048F51
         K14L28O  C2015 07 08.54491 21 25 57.600+01 56 19.01         21.2 iLEO048F51
         K14L28O  C2015 07 08.55771 21 25 57.554+01 56 19.02         21.2 iLEO048F51
         K14L28O  C2015 07 08.57044 21 25 57.496+01 56 19.05         21.2 iLEO048F51
         K14L28O  C2015 07 12.45264 21 25 41.918+01 56 19.20         21.4 wLEO048F51
         K14L28O  C2015 07 12.46544 21 25 41.866+01 56 19.14         21.3 wLEO048F51
         K14L28O  C2015 07 12.47828 21 25 41.809+01 56 19.12         21.4 wLEO048F51
         K14L28O  C2015 07 12.49205 21 25 41.757+01 56 19.11         21.3 wLEO048F51
    
    Observer details:
    F51 Pan-STARRS 1, Haleakala.  Observers B. Gibson, T. Goggia, N. Primak,
        A. Schultz, M. Willman.  Measurers K. Chambers, S. Chastel, Y.-T. Chen,
        L. Denneau, H. Flewelling, M. Holman, M. Huber, R. Jedicke, M. Lackner,
        E. Lilly, H.-W. Lin, E. Magnier, M. Micheli, M. Payne, P. Veres,
        R. Wainscoat, C. Waters, R. Weryk.  1.8-m Ritchey-Chretien + CCD.
    
    Orbital elements:
    2014 LO28
    Epoch 2016 July 31.0 TT = JDT 2457600.5                 MPC
    M 304.39373              (2000.0)            P               Q
    n   0.00352004     Peri.  108.19954     +0.72586978     -0.55022389
    a  42.7994076      Node   287.21690     +0.34307751     +0.80972510
    e   0.1158605      Incl.   25.60203     +0.59616347     +0.20395818
    P 280              H    5.2           G   0.15           U   2
    Residuals in seconds of arc
    100902 F51  0.2-  0.1-    140601 F51  0.1-  0.0     150611 F51  0.2+  0.2-
    100902 F51  0.2+  0.1+    140601 F51  0.1-  0.0     150611 F51  0.0   0.1-
    100902 F51  0.0   0.0     140703 F51  0.1+  0.0     150611 F51  0.0   0.3-
    100902 F51  0.1+  0.1-    140703 F51  0.1+  0.0     150611 F51  0.1+  0.0
    120821 F51  0.1+  0.1-    140703 F51  0.0   0.1-    150708 F51  0.0   0.1+
    120821 F51  0.2-  0.2+    140703 F51  0.1+  0.0     150708 F51  0.1-  0.1+
    120821 F51  0.1+  0.1-    140818 F51  0.0   0.0     150708 F51  0.0   0.1+
    120821 F51  0.1-  0.2-    140818 F51  0.1+  0.0     150708 F51  0.1-  0.1+
    130815 F51  0.1-  0.1+    140818 F51  0.2+  0.1-    150712 F51  0.0   0.0
    130815 F51  0.0   0.0     140818 F51  0.0   0.1-    150712 F51  0.0   0.0
    130815 F51  0.1-  0.2+    140829 F51  0.4-  0.6+    150712 F51  0.1-  0.0
    140601 F51  0.0   0.1-    140829 F51  0.0   0.0     150712 F51  0.0   0.0
    140601 F51  0.1-  0.0     140829 F51  0.2+  0.0
    
    Ephemeris:
    2014 LO28                a,e,i = 42.80, 0.12, 26                 q = 37.841
    Date    TT    R. A. (2000) Decl.     Delta      r     Elong.  Phase     V
    2016 06 16    21 31 38.2 +02 48 03  39.9613 40.4413   117.6     1.3    21.4
    ...
    2016 07 01    21 30 54.3 +02 50 50  39.7613 40.4370   131.1     1.1    21.4
    ...
    2016 07 09    21 30 24.8 +02 51 21  39.6714 40.4348   138.2     1.0    21.4
    ...
    2016 07 15    21 30 00.4 +02 51 19  39.6130 40.4331   143.4     0.9    21.4
    2016 07 16    21 29 56.1 +02 51 16  39.6041 40.4328   144.2     0.8    21.4
    2016 07 17    21 29 51.8 +02 51 13  39.5954 40.4325   145.0     0.8    21.4
    ...
    2016 07 23    21 29 25.3 +02 50 41  39.5483 40.4308   149.9     0.7    21.3
    ...
    2016 07 31    21 28 48.2 +02 49 26  39.4996 40.4285   155.9     0.6    21.3
    ...
    2016 08 15    21 27 35.6 +02 45 35  39.4549 40.4243   163.0     0.4    21.3
    
    A. U. Tomatic                (C) Copyright 2016 MPC           M.P.E.C. 2016-O48
    

    Read MPEC 2016-O47 Read MPEC 2016-O49


    MPEC number:

    Enter an MPEC number in one of the following forms:

    • 1997-B01 (the full form)
    • J97B01 (the packed version of the full form)
    • B01 (the abbreviated form)